Weather in Agdam

Azerbaijan     39˚59′41″N   46˚56′12″E
temp.,
°C
wind,
m/s
gust,
m/s
humid.,
%
clouds,
%
prec.,
mm/h
press.,
hPa
HPBL,
m
28 november, sat
sat2801:00+4˚n11930 0.0 103422
04:00+4˚nw12929 0.0 103328
07:00+3˚wnw118819 0.0 103322
10:00+6˚n017633 0.0 1032199
13:00+8˚ene22681 0.0 1030739
16:00+8˚e116647 0.0 1029657
19:00+6˚sse117452 0.0 102923
22:00+5˚wsw117860 0.0 103022
29 november, sun
sun2901:00+5˚w1178100 0.0 102922
04:00+4˚w127668 0.0 102922
07:00+4˚wsw227572 0.0 102825
10:00+6˚wsw126586 0.0 1028156
13:00+9˚ne225468 0.0 1026644
16:00+9˚ene125484 0.0 1025570
19:00+8˚se1161100 0.0 102635
22:00+6˚ssw1178100 0.8 1027231
30 november, mon
mon3001:00+6˚wnw1182100 0.9 102784
04:00+6˚w1180100 0.9 102630
07:00+5˚ne1290100 0.3 1026211
10:00+5˚ese1091100 0.4 1026167
13:00+7˚se2278100 0.0 1024354
16:00+8˚ese337668 0.0 1024537
19:00+7˚ese358697 0.0 1024394
22:00+6˚se468499 0.0 1025433
1 december, tue
tue101:00+6˚se4680100 0.0 1024419
04:00+5˚se238789 0.0 1024194
07:00+4˚se229263 0.0 1024104
10:00+5˚se228150 0.0 1024242
13:00+8˚ese226717 0.0 1023666
16:00+9˚e116434 0.0 1022763
19:00+6˚ese117731 0.0 102428
22:00+5˚sse118316 0.0 102522
2 december, wed
wed201:00+5˚w00870 0.0 102522
04:00+4˚w118915 0.0 102522
07:00+5˚wnw118486 0.0 102522
10:00+7˚ene117592 0.0 1025162
13:00+8˚ene2170100 0.0 1024501
16:00+8˚ese1170100 0.0 1023539
19:00+7˚sse2278100 0.0 102435
22:00+6˚s1281100 0.0 102622